Home > Weather > Nienburg (Weser) > Past weeks

Flag for Germany Past Weather in Nienburg (Weser), Lower Saxony, Germany — Yesterday and Last 2 Weeks

Now
82 °F

Pleasantly warm.


Feels Like: 81 °F
Forecast: 64 / 79 °F
Wind: 2 mph from Northeast

Location: Wunstorf Airport

Current Time: Jul 24, 2016 at 2:50:38 PM

Latest Report: Jul 24, 2016 at 1:20 PM


Visibility: N/A

Pressure: 30.07 "Hg

Humidity: 35%

Dew Point: 52 °F

Location of Nienburg (Weser)Location

Past Weather in Nienburg (Weser) — Graph

°F

Nienburg (Weser) Temperature Yesterday

Maximum temperature yesterday: 73 °F (at 2:20 PM)
Minimum temperature yesterday: 63 °F (at 1:20 AM)
Average temperature yesterday: 69 °F

High & Low Weather Summary for the Past Weeks

 TemperatureHumidityPressure
High88 °F (Jul 20, 3:20 PM)94% (Jul 13, 2:20 AM)30.24 "Hg (Jul 13, 2:20 AM)
Low52 °F (Jul 16, 3:20 AM)33% (Jul 20, 6:20 PM)29.71 "Hg (Jul 10, 11:20 PM)
Average69 °F67%30.02 "Hg
* Reported Jul 9 1:20 PM — Jul 24 1:20 PM, Nienburg (Weser), Weather by CustomWeather, © 2016

Note: Actual official high and low records may vary slightly from our data, if they occured in-between our weather recording intervals... More about our weather records

Advertising

Nienburg (Weser) Weather History for the Previous 24 Hours

Scroll right to see more
 ConditionsComfort  
Time TempWeatherWind HumidityBarometerVisibility
1:20 PM
Sun, Jul 24
82 °FPleasantly warm.2 mph35%30.07 "HgN/A
12:20 PM81 °FPleasantly warm.3 mph39%30.09 "HgN/A
11:20 AM79 °FWarm.3 mph51%30.07 "HgN/A
10:20 AM75 °FMild.1 mph54%30.09 "HgN/A
9:20 AM72 °FMild.3 mph65%30.09 "HgN/A
8:20 AM68 °FMild.2 mph78%30.07 "HgN/A
7:20 AM66 °FMild.2 mph83%30.09 "HgN/A
6:20 AM64 °FMild.1 mph88%30.09 "Hg6 mi
5:20 AM64 °FMild.1 mph83%30.09 "HgN/A
4:20 AM64 °FMild.2 mph88%30.09 "Hg6 mi
3:20 AM66 °FMild.5 mph78%30.09 "HgN/A
2:20 AM66 °FMild.2 mph83%30.09 "HgN/A
1:20 AM68 °FMild.6 mph73%30.09 "HgN/A
12:20 AM66 °FMild.6 mph83%30.09 "HgN/A
11:20 PM
Sat, Jul 23
68 °FMild.No wind73%30.09 "Hg6 mi
10:20 PM70 °FMild.3 mph69%30.09 "Hg6 mi
9:20 PM72 °FMild.3 mph65%30.09 "HgN/A
8:20 PM72 °FMild.2 mph65%30.07 "HgN/A
7:20 PM72 °FMild.5 mph65%30.07 "HgN/A
6:50 PM72 °FPartly sunny.5 mph61%30.07 "HgN/A
6:20 PM73 °FPartly sunny.3 mph65%30.07 "HgN/A
5:20 PM73 °FPartly sunny.3 mph61%30.09 "HgN/A
4:20 PM73 °FPartly sunny.3 mph61%30.09 "HgN/A
3:20 PM73 °FMild.2 mph61%30.09 "HgN/A
2:20 PM73 °FMild.5 mph61%30.09 "HgN/A
Weather by CustomWeather, © 2016

See weather overviewHow to use our weather pages